Location: Czekan�w
(50.3488°N, 18.7344°E)
Time: 04:31:36
(UTC+00:00)

ATLAS 2AS CENTAUR R/B - Pass Details

Date: 17 February 2020
Orbit: 929 x 1283 km, 63.7° (Epoch: 27 March)

Event Time Altitude Azimuth Distance (km) Brightness Sun altitude
Exits shadow 02:23:01 28° 333° (NNW) 2,188 4.2 -33.7°
Maximum altitude 02:24:54 31° 357° (N) 2,061 4.2 -33.5°
Drops below altitude 10° 02:31:33 10° 57° (ENE) 3,148 6.0 -32.5°
Sets 02:34:39 0° 68° (ENE) 4,060 6.9 -32.0°
